This demonstration page uses our WeatherBlox Daily Observations layout. Learn more.

Left ArrowRight Arrow

Hourly Observations for October 3, 2021

Temp ( °F °C ) Dew Point ( °F °C ) Humidity (%) Winds ( mph kmh ) Pressure ( in mb ) Visibility ( mi km ) Precip ( " mm )
12:53 am 00:53 Clear 62 16.7 45 7.2 54 54 Calm 30.03 1017 9 14 0.00 0.00
1:53 am 01:53 Clear 61 16.1 47 8.3 60 60 NE 6 9 30.02 1017 10 16 0.00 0.00
2:53 am 02:53 Clear 59 15 48 8.9 67 67 NNW 6 9 30.03 1017 10 16 0.00 0.00
3:53 am 03:53 Clear 59 15 50 10 72 72 N 7 11 30.02 1017 10 16 0.00 0.00
4:53 am 04:53 Clear 58 14.4 50 10 75 75 N 9 15 30.02 1017 10 16 0.00 0.00
5:53 am 05:53 Clear 57 13.9 51 10.6 81 81 N 8 13 30.03 1017 10 16 0.00 0.00
6:53 am 06:53 Clear 57 13.9 50 10 78 78 N 7 11 30.04 1017 10 16 0.00 0.00
7:53 am 07:53 Sunny 56 13.3 50 10 81 81 NNW 8 13 30.07 1018 10 16 0.00 0.00
8:53 am 08:53 Sunny 60 15.6 51 10.6 72 72 N 8 13 30.09 1019 10 16 0.00 0.00
9:53 am 09:53 Sunny 67 19.4 52 11.1 59 59 NNE 7 11 30.09 1019 10 16 0.00 0.00
10:53 am 10:53 Sunny 75 23.9 53 11.7 46 46 ENE 6 9 30.09 1019 10 16 0.00 0.00
11:53 am 11:53 Sunny 76 24.4 55 12.8 48 48 SW 3 6 30.09 1019 10 16 0.00 0.00
12:53 pm 12:53 Sunny 78 25.6 53 11.7 42 42 W 5 7 30.06 1018 10 16 0.00 0.00
1:53 pm 13:53 Mostly Cloudy 81 27.2 52 11.1 37 37 Calm 30.03 1017 10 16 0.00 0.00
2:53 pm 14:53 Partly Cloudy 82 27.8 51 10.6 34 34 Calm 30.00 1016 10 16 0.00 0.00
3:53 pm 15:53 Sunny 85 29.4 48 8.9 28 28 NNE 8 13 29.97 1015 10 16 0.00 0.00
4:53 pm 16:53 Sunny 85 29.4 46 7.8 26 26 Calm 29.95 1014 10 16 0.00 0.00
7:30 pm 19:30 Sunny 82 28 46 8 28 28 N 3 6 29.89 1012 10 16 0.00 0.00
7:35 pm 19:35 Sunny 81 27 46 8 30 30 N 6 9 29.90 1013 10 16 0.00 0.00
7:55 pm 19:55 Clear 79 26 45 7 30 30 NNE 6 9 29.91 1013 10 16 0.00 0.00
8:53 pm 20:53 Clear 75 23.9 47 8.3 37 37 NE 8 13 30.00 1016 10 16 0.00 0.00
9:53 pm 21:53 Clear 72 22.2 47 8.3 41 41 E 7 11 30.02 1017 10 16 0.00 0.00
10:53 pm 22:53 Clear 71 21.7 46 7.8 41 41 E 8 13 30.02 1017 10 16 0.00 0.00
11:53 pm 23:53 Clear 68 20 45 7.2 44 44 E 6 9 30.03 1017 10 16 0.00 0.00

Powered by AerisWeather